Retour au catalogue

STARLINK-5554

ActifCommunicationsSSO
NORAD 56338·PAYLOAD·🇺🇸 United States

Lancé Apr 27, 2023 depuis Vandenberg Space Force Base

Loading…

Prochains Passages (prochaines 24 heures)

TLE

FraisSource: CelesTrak SupGP

Époque: Sep 15, 2026, 02:31 UTC

1 56338C 23058X   26258.10534722 -.00060172  00000+0 -36599-2 0  2589
2 56338  97.2849 252.2593 0002071  89.7820 123.5746 15.10561484    12

Suivez STARLINK-5554 en temps réel avec AllMySat

Download on the App Store